Terug naar catalogus

ATLAS 5 CENTAUR DEB

LostHEO
NORAD 55853·DEBRIS·🇺🇸 United States

Gelanceerd Oct 17, 2018 vanaf Cape Canaveral Space Force Station

Loading…

Volgende Passages (komende 24 uur)

TLE

VerouderdSource: Space-Track

Epoch: Nov 28, 2024, 15:14 UTC

1 55853U 18079HF  24333.63524644 -.00000080  00000-0  00000-0 0  9999
2 55853  12.4690  82.7867 4890633 227.0692  79.8616  1.80131086 14942

Volg ATLAS 5 CENTAUR DEB in realtime met AllMySat

Download on the App Store